Time,TemperatureF,DewpointF,PressureIn,WindDirection,WindDirectionDegrees,WindSpeedMPH,WindSpeedGustMPH,Humidity,HourlyPrecipIn,Conditions,Clouds,dailyrainin,SoftwareType,DateUTC
2013-08-05 00:01:00,53.6,50.5,29.76,East,90,1.1,1.1,89,0.05,,,0.00,WUHU216HW,2013-08-05 04:01:00,
2013-08-05 00:07:00,53.6,50.5,29.77,West,270,0.0,1.8,89,0.05,,,0.00,WUHU216HW,2013-08-05 04:07:00,
2013-08-05 00:12:00,53.6,50.5,29.77,NNW,338,0.4,1.8,89,0.05,,,0.00,WUHU216HW,2013-08-05 04:12:00,
2013-08-05 00:17:00,54.0,50.9,29.77,North,0,0.4,1.1,89,0.04,,,0.00,WUHU216HW,2013-08-05 04:17:00,
2013-08-05 00:22:00,54.2,51.0,29.77,NNE,23,0.4,1.3,89,0.04,,,0.02,WUHU216HW,2013-08-05 04:22:00,
2013-08-05 00:27:00,54.0,50.9,29.77,SE,135,0.7,2.5,89,0.04,,,0.03,WUHU216HW,2013-08-05 04:27:00,
2013-08-05 00:32:00,53.8,50.7,29.77,SE,135,1.1,2.5,89,0.03,,,0.03,WUHU216HW,2013-08-05 04:32:00,
2013-08-05 00:37:00,54.0,50.9,29.76,NNE,23,0.0,2.0,89,0.02,,,0.03,WUHU216HW,2013-08-05 04:37:00,
2013-08-05 00:42:00,54.2,51.0,29.77,ESE,113,0.0,1.1,89,0.02,,,0.03,WUHU216HW,2013-08-05 04:42:00,
2013-08-05 00:47:00,54.2,51.0,29.76,North,0,0.0,1.1,89,0.02,,,0.03,WUHU216HW,2013-08-05 04:47:00,
2013-08-05 00:52:00,54.0,50.9,29.76,West,270,0.4,1.8,89,0.02,,,0.03,WUHU216HW,2013-08-05 04:52:00,
2013-08-05 00:57:00,54.0,50.9,29.76,NNE,23,1.3,1.8,89,0.02,,,0.03,WUHU216HW,2013-08-05 04:57:00,
2013-08-05 01:02:00,53.8,50.7,29.76,NNE,23,1.1,1.8,89,0.02,,,0.03,WUHU216HW,2013-08-05 05:02:00,
2013-08-05 01:07:00,53.8,50.7,29.76,North,0,0.0,1.8,89,0.02,,,0.03,WUHU216HW,2013-08-05 05:07:00,
2013-08-05 01:12:00,53.6,50.5,29.76,NNE,23,1.1,1.3,89,0.02,,,0.03,WUHU216HW,2013-08-05 05:12:00,
2013-08-05 01:17:00,53.8,50.7,29.77,West,270,2.2,2.2,89,0.01,,,0.03,WUHU216HW,2013-08-05 05:17:00,
2013-08-05 01:22:00,53.8,50.7,29.77,WSW,248,2.2,4.0,89,0.00,,,0.03,WUHU216HW,2013-08-05 05:22:00,
2013-08-05 01:27:00,54.4,51.2,29.77,WNW,293,2.0,5.1,89,0.01,,,0.04,WUHU216HW,2013-08-05 05:27:00,
2013-08-05 01:32:00,54.5,51.3,29.77,WNW,293,2.2,5.1,89,0.01,,,0.04,WUHU216HW,2013-08-05 05:32:00,
2013-08-05 01:37:00,54.7,51.2,29.77,West,270,0.7,3.4,88,0.01,,,0.04,WUHU216HW,2013-08-05 05:37:00,
2013-08-05 01:42:00,54.9,51.4,29.77,North,0,2.5,2.5,88,0.01,,,0.04,WUHU216HW,2013-08-05 05:42:00,
2013-08-05 01:47:00,54.7,51.2,29.77,SW,225,0.4,3.1,88,0.01,,,0.04,WUHU216HW,2013-08-05 05:47:00,
2013-08-05 01:52:00,54.7,51.2,29.77,NNE,23,1.6,3.1,88,0.01,,,0.04,WUHU216HW,2013-08-05 05:52:00,
2013-08-05 01:57:00,54.5,50.8,29.77,WNW,293,0.0,1.6,87,0.02,,,0.05,WUHU216HW,2013-08-05 05:57:00,
2013-08-05 02:02:00,54.5,50.8,29.76,SSE,158,0.0,0.9,87,0.02,,,0.05,WUHU216HW,2013-08-05 06:02:00,
2013-08-05 02:07:00,54.4,50.6,29.76,SSE,158,0.0,1.1,87,0.02,,,0.05,WUHU216HW,2013-08-05 06:07:00,
2013-08-05 02:12:00,54.4,50.9,29.77,North,0,0.9,1.8,88,0.02,,,0.05,WUHU216HW,2013-08-05 06:12:00,
2013-08-05 02:17:00,54.4,50.9,29.77,ESE,113,0.0,1.8,88,0.02,,,0.05,WUHU216HW,2013-08-05 06:17:00,
2013-08-05 02:22:00,54.2,50.7,29.77,WNW,293,3.4,3.8,88,0.01,,,0.05,WUHU216HW,2013-08-05 06:22:00,
2013-08-05 02:27:00,54.4,50.9,29.76,NNW,338,1.6,3.8,88,0.01,,,0.05,WUHU216HW,2013-08-05 06:27:00,
2013-08-05 02:32:00,54.4,50.9,29.76,SW,225,0.7,3.4,88,0.01,,,0.05,WUHU216HW,2013-08-05 06:32:00,
2013-08-05 02:37:00,54.4,50.9,29.76,NNW,338,0.9,3.4,88,0.01,,,0.05,WUHU216HW,2013-08-05 06:37:00,
2013-08-05 02:42:00,54.4,50.9,29.77,NNE,23,0.0,1.3,88,0.01,,,0.05,WUHU216HW,2013-08-05 06:42:00,
2013-08-05 02:47:00,54.4,50.9,29.77,NNE,23,0.0,1.1,88,0.01,,,0.05,WUHU216HW,2013-08-05 06:47:00,
2013-08-05 02:52:00,54.2,50.7,29.77,NW,315,0.4,0.4,88,0.01,,,0.05,WUHU216HW,2013-08-05 06:52:00,
2013-08-05 02:57:00,54.4,50.9,29.77,WNW,293,1.8,3.4,88,0.00,,,0.05,WUHU216HW,2013-08-05 06:57:00,
2013-08-05 03:02:00,54.4,50.9,29.77,WSW,248,0.2,3.4,88,0.00,,,0.05,WUHU216HW,2013-08-05 07:02:00,
2013-08-05 03:07:00,54.5,50.8,29.77,WSW,248,1.8,1.8,87,0.00,,,0.05,WUHU216HW,2013-08-05 07:07:00,
2013-08-05 03:12:00,54.5,50.8,29.77,SW,225,0.4,1.8,87,0.00,,,0.05,WUHU216HW,2013-08-05 07:12:00,
2013-08-05 03:17:00,54.4,50.6,29.77,NNW,338,0.7,1.8,87,0.00,,,0.05,WUHU216HW,2013-08-05 07:17:00,
2013-08-05 03:22:00,54.4,50.6,29.77,North,0,1.3,1.8,87,0.00,,,0.05,WUHU216HW,2013-08-05 07:22:00,
2013-08-05 03:27:00,54.5,50.4,29.77,NW,315,1.1,2.0,86,0.00,,,0.05,WUHU216HW,2013-08-05 07:27:00,
2013-08-05 03:32:00,54.5,50.4,29.77,WNW,293,0.0,2.0,86,0.00,,,0.05,WUHU216HW,2013-08-05 07:32:00,
2013-08-05 03:37:00,54.4,50.2,29.77,NNW,338,0.0,1.1,86,0.00,,,0.05,WUHU216HW,2013-08-05 07:37:00,
2013-08-05 03:42:00,54.4,50.2,29.77,WNW,293,0.4,1.8,86,0.00,,,0.05,WUHU216HW,2013-08-05 07:42:00,
2013-08-05 03:47:00,54.4,50.2,29.77,WNW,293,0.9,1.8,86,0.00,,,0.05,WUHU216HW,2013-08-05 07:47:00,
2013-08-05 03:52:00,54.4,50.2,29.77,North,0,1.6,2.7,86,0.00,,,0.05,WUHU216HW,2013-08-05 07:52:00,
2013-08-05 03:57:00,54.5,50.4,29.77,WNW,293,0.4,3.1,86,0.00,,,0.05,WUHU216HW,2013-08-05 07:57:00,
2013-08-05 04:02:00,54.4,50.2,29.77,NNW,338,1.3,3.1,86,0.00,,,0.05,WUHU216HW,2013-08-05 08:02:00,
2013-08-05 04:07:00,54.5,50.4,29.77,West,270,2.0,2.7,86,0.00,,,0.05,WUHU216HW,2013-08-05 08:07:00,
2013-08-05 04:12:00,54.4,50.2,29.77,West,270,1.1,4.0,86,0.00,,,0.05,WUHU216HW,2013-08-05 08:12:00,
2013-08-05 04:17:00,54.4,50.2,29.77,NNW,338,0.4,4.0,86,0.00,,,0.05,WUHU216HW,2013-08-05 08:17:00,
2013-08-05 04:22:00,54.2,50.0,29.77,North,0,1.3,1.8,86,0.00,,,0.05,WUHU216HW,2013-08-05 08:22:00,
2013-08-05 04:27:00,54.2,50.0,29.77,NNW,338,1.8,2.2,86,0.00,,,0.05,WUHU216HW,2013-08-05 08:27:00,
2013-08-05 04:32:00,54.2,50.0,29.77,NW,315,3.1,3.1,86,0.00,,,0.05,WUHU216HW,2013-08-05 08:32:00,
2013-08-05 04:37:00,54.0,49.6,29.77,NW,315,1.3,4.0,85,0.00,,,0.05,WUHU216HW,2013-08-05 08:37:00,
2013-08-05 04:42:00,54.0,49.6,29.78,NW,315,1.6,5.4,85,0.00,,,0.05,WUHU216HW,2013-08-05 08:42:00,
2013-08-05 04:47:00,53.8,49.4,29.78,NW,315,0.2,5.4,85,0.00,,,0.05,WUHU216HW,2013-08-05 08:47:00,
2013-08-05 04:52:00,53.6,49.2,29.78,WSW,248,1.3,4.5,85,0.00,,,0.05,WUHU216HW,2013-08-05 08:52:00,
2013-08-05 04:58:00,53.3,48.9,29.78,SW,225,1.3,4.5,85,0.00,,,0.05,WUHU216HW,2013-08-05 08:58:00,
2013-08-05 05:03:00,53.1,48.7,29.78,West,270,1.1,2.5,85,0.00,,,0.05,WUHU216HW,2013-08-05 09:03:00,
2013-08-05 05:08:00,52.9,48.5,29.79,SSW,203,2.2,2.5,85,0.00,,,0.05,WUHU216HW,2013-08-05 09:08:00,
2013-08-05 05:13:00,52.9,48.5,29.79,North,0,0.0,2.2,85,0.00,,,0.05,WUHU216HW,2013-08-05 09:13:00,
2013-08-05 05:18:00,52.9,48.5,29.79,WSW,248,0.7,2.2,85,0.00,,,0.05,WUHU216HW,2013-08-05 09:18:00,
2013-08-05 05:23:00,52.9,48.5,29.79,WSW,248,1.1,1.1,85,0.00,,,0.05,WUHU216HW,2013-08-05 09:23:00,
2013-08-05 05:29:00,53.1,49.0,29.79,North,0,0.0,1.1,86,0.00,,,0.05,WUHU216HW,2013-08-05 09:29:00,
2013-08-05 05:34:00,52.9,48.8,29.79,NNW,338,0.0,0.7,86,0.00,,,0.05,WUHU216HW,2013-08-05 09:34:00,
2013-08-05 05:39:00,52.9,48.8,29.79,NNW,338,0.0,0.7,86,0.00,,,0.05,WUHU216HW,2013-08-05 09:39:00,
2013-08-05 05:44:00,52.6,48.4,29.80,NNW,338,0.2,1.1,86,0.00,,,0.05,WUHU216HW,2013-08-05 09:44:00,
2013-08-05 05:49:00,52.2,48.4,29.80,NNW,338,0.0,1.1,87,0.00,,,0.05,WUHU216HW,2013-08-05 09:49:00,
2013-08-05 05:54:00,52.2,48.4,29.80,WNW,293,1.1,1.8,87,0.00,,,0.05,WUHU216HW,2013-08-05 09:54:00,
2013-08-05 05:59:00,52.0,48.3,29.80,North,0,0.7,1.8,87,0.00,,,0.05,WUHU216HW,2013-08-05 09:59:00,
2013-08-05 06:05:00,52.0,48.3,29.80,NNW,338,0.0,1.1,87,0.00,,,0.05,WUHU216HW,2013-08-05 10:05:00,
2013-08-05 06:10:00,52.0,48.3,29.81,NNW,338,0.0,1.1,87,0.00,,,0.05,WUHU216HW,2013-08-05 10:10:00,
2013-08-05 06:15:00,51.8,47.7,29.81,West,270,0.0,1.1,86,0.00,,,0.05,WUHU216HW,2013-08-05 10:15:00,
2013-08-05 06:20:00,51.5,47.3,29.81,NW,315,0.2,1.1,86,0.00,,,0.05,WUHU216HW,2013-08-05 10:20:00,
2013-08-05 06:25:00,51.8,47.7,29.81,SW,225,0.0,0.7,86,0.00,,,0.05,WUHU216HW,2013-08-05 10:25:00,
2013-08-05 06:30:00,52.6,48.4,29.82,West,270,2.9,2.9,86,0.00,,,0.05,WUHU216HW,2013-08-05 10:30:00,
2013-08-05 06:35:00,54.4,50.6,29.82,WSW,248,2.5,2.9,87,0.00,,,0.05,WUHU216HW,2013-08-05 10:35:00,
2013-08-05 06:40:00,55.1,50.6,29.82,NW,315,0.4,2.7,85,0.00,,,0.05,WUHU216HW,2013-08-05 10:40:00,
2013-08-05 06:45:00,55.4,50.3,29.81,WNW,293,0.0,2.5,83,0.00,,,0.05,WUHU216HW,2013-08-05 10:45:00,
2013-08-05 06:50:00,55.8,50.3,29.82,NW,315,0.0,0.9,82,0.00,,,0.05,WUHU216HW,2013-08-05 10:50:00,
2013-08-05 06:55:00,55.8,50.3,29.82,NW,315,0.9,0.9,82,0.00,,,0.05,WUHU216HW,2013-08-05 10:55:00,
2013-08-05 07:00:00,55.6,49.1,29.82,West,270,2.5,3.4,79,0.00,,,0.05,WUHU216HW,2013-08-05 11:00:00,
2013-08-05 07:05:00,54.7,48.3,29.82,WSW,248,2.5,4.9,79,0.00,,,0.05,WUHU216HW,2013-08-05 11:05:00,
2013-08-05 07:11:00,54.2,47.8,29.82,West,270,3.6,5.8,79,0.00,,,0.05,WUHU216HW,2013-08-05 11:11:00,
2013-08-05 07:16:00,53.8,47.9,29.83,WSW,248,1.8,5.8,80,0.00,,,0.05,WUHU216HW,2013-08-05 11:16:00,
2013-08-05 07:21:00,53.6,47.7,29.83,NW,315,1.8,2.7,80,0.00,,,0.05,WUHU216HW,2013-08-05 11:21:00,
2013-08-05 07:27:00,53.8,47.9,29.83,North,0,0.7,2.7,80,0.00,,,0.05,WUHU216HW,2013-08-05 11:27:00,
2013-08-05 07:32:00,54.0,48.3,29.83,NW,315,0.0,1.3,81,0.00,,,0.05,WUHU216HW,2013-08-05 11:32:00,
2013-08-05 07:37:00,54.2,48.2,29.83,WNW,293,1.1,1.6,80,0.00,,,0.05,WUHU216HW,2013-08-05 11:37:00,
2013-08-05 07:42:00,54.4,48.7,29.84,NNW,338,0.2,1.6,81,0.00,,,0.05,WUHU216HW,2013-08-05 11:42:00,
2013-08-05 07:47:00,54.5,48.9,29.84,North,0,0.0,1.1,81,0.00,,,0.05,WUHU216HW,2013-08-05 11:47:00,
2013-08-05 07:53:00,54.7,49.0,29.84,WNW,293,1.3,2.7,81,0.00,,,0.05,WUHU216HW,2013-08-05 11:53:00,
2013-08-05 07:58:00,54.9,48.9,29.84,NW,315,1.1,4.0,80,0.00,,,0.05,WUHU216HW,2013-08-05 11:58:00,
2013-08-05 08:03:00,55.1,49.0,29.84,SSW,203,1.8,4.0,80,0.00,,,0.05,WUHU216HW,2013-08-05 12:03:00,
2013-08-05 08:08:00,55.4,48.0,29.84,West,270,4.9,5.4,76,0.00,,,0.05,WUHU216HW,2013-08-05 12:08:00,
2013-08-05 08:13:00,55.4,48.3,29.84,West,270,1.3,5.4,77,0.00,,,0.05,WUHU216HW,2013-08-05 12:13:00,
2013-08-05 08:18:00,55.6,48.2,29.84,WSW,248,0.7,4.5,76,0.00,,,0.05,WUHU216HW,2013-08-05 12:18:00,
2013-08-05 08:23:00,55.8,48.3,29.84,WNW,293,1.8,4.5,76,0.00,,,0.05,WUHU216HW,2013-08-05 12:23:00,
2013-08-05 08:28:00,56.2,48.6,29.84,SE,135,1.1,4.7,76,0.00,,,0.05,WUHU216HW,2013-08-05 12:28:00,
2013-08-05 08:33:00,56.2,47.6,29.84,WSW,248,1.3,4.7,73,0.00,,,0.05,WUHU216HW,2013-08-05 12:33:00,
2013-08-05 08:38:00,56.2,47.6,29.84,WSW,248,2.5,4.7,73,0.00,,,0.05,WUHU216HW,2013-08-05 12:38:00,
2013-08-05 08:44:00,56.5,48.0,29.84,WSW,248,1.1,4.7,73,0.00,,,0.05,WUHU216HW,2013-08-05 12:44:00,
2013-08-05 08:49:00,57.1,48.4,29.84,SW,225,1.8,4.7,73,0.00,,,0.05,WUHU216HW,2013-08-05 12:49:00,
2013-08-05 08:54:00,57.1,47.7,29.84,NW,315,3.8,4.7,71,0.00,,,0.05,WUHU216HW,2013-08-05 12:54:00,
2013-08-05 08:59:00,57.1,47.7,29.85,WNW,293,1.8,4.7,71,0.00,,,0.05,WUHU216HW,2013-08-05 12:59:00,
2013-08-05 09:04:00,57.1,47.3,29.85,WNW,293,3.6,6.5,70,0.00,,,0.05,WUHU216HW,2013-08-05 13:04:00,
2013-08-05 09:09:00,56.9,46.8,29.85,NW,315,2.5,6.5,69,0.00,,,0.05,WUHU216HW,2013-08-05 13:09:00,
2013-08-05 09:14:00,57.2,47.2,29.85,NW,315,3.8,6.5,69,0.00,,,0.05,WUHU216HW,2013-08-05 13:14:00,
2013-08-05 09:19:00,57.4,46.9,29.85,NW,315,4.3,6.7,68,0.00,,,0.05,WUHU216HW,2013-08-05 13:19:00,
2013-08-05 09:24:00,58.1,47.6,29.85,NNW,338,2.9,6.7,68,0.00,,,0.05,WUHU216HW,2013-08-05 13:24:00,
2013-08-05 09:29:00,58.5,47.5,29.85,West,270,4.7,5.4,67,0.00,,,0.05,WUHU216HW,2013-08-05 13:29:00,
2013-08-05 09:34:00,58.1,45.6,29.85,WNW,293,4.7,6.3,63,0.00,,,0.05,WUHU216HW,2013-08-05 13:34:00,
2013-08-05 09:39:00,57.8,46.4,29.85,West,270,2.0,6.3,66,0.00,,,0.05,WUHU216HW,2013-08-05 13:39:00,
2013-08-05 09:45:00,58.0,46.3,29.85,WNW,293,2.5,6.3,65,0.00,,,0.05,WUHU216HW,2013-08-05 13:45:00,
2013-08-05 09:50:00,58.5,47.5,29.85,NNW,338,3.6,6.3,67,0.00,,,0.05,WUHU216HW,2013-08-05 13:50:00,
2013-08-05 09:55:00,59.6,47.3,29.85,WNW,293,4.7,6.3,64,0.00,,,0.05,WUHU216HW,2013-08-05 13:55:00,
2013-08-05 10:00:00,59.6,47.3,29.85,NW,315,2.0,6.3,64,0.00,,,0.05,WUHU216HW,2013-08-05 14:00:00,
2013-08-05 10:05:00,59.8,46.7,29.85,NW,315,4.0,9.8,62,0.00,,,0.05,WUHU216HW,2013-08-05 14:05:00,
2013-08-05 10:10:00,59.0,46.0,29.85,West,270,3.4,9.8,62,0.00,,,0.05,WUHU216HW,2013-08-05 14:10:00,
2013-08-05 10:15:00,59.4,47.2,29.85,NW,315,3.4,5.8,64,0.00,,,0.05,WUHU216HW,2013-08-05 14:15:00,
2013-08-05 10:20:00,60.3,48.5,29.85,West,270,2.9,4.7,65,0.00,,,0.05,WUHU216HW,2013-08-05 14:20:00,
2013-08-05 10:26:00,60.8,47.8,29.85,North,0,3.4,4.5,62,0.00,,,0.05,WUHU216HW,2013-08-05 14:26:00,
2013-08-05 10:32:00,60.7,48.1,29.85,NNW,338,2.5,5.4,63,0.00,,,0.05,WUHU216HW,2013-08-05 14:32:00,
2013-08-05 10:37:00,62.5,48.4,29.85,North,0,4.7,7.4,60,0.00,,,0.05,WUHU216HW,2013-08-05 14:37:00,
2013-08-05 10:42:00,62.5,48.0,29.85,North,0,4.3,7.4,59,0.00,,,0.05,WUHU216HW,2013-08-05 14:42:00,
2013-08-05 10:47:00,62.1,48.2,29.85,North,0,2.7,6.9,60,0.00,,,0.05,WUHU216HW,2013-08-05 14:47:00,
2013-08-05 10:52:00,62.6,49.1,29.85,WSW,248,3.4,4.7,61,0.00,,,0.05,WUHU216HW,2013-08-05 14:52:00,
2013-08-05 10:58:00,63.0,48.0,29.85,West,270,3.1,4.7,58,0.00,,,0.05,WUHU216HW,2013-08-05 14:58:00,
2013-08-05 11:02:00,63.4,48.8,29.84,West,270,3.1,5.1,59,0.00,,,0.05,WUHU216HW,2013-08-05 15:02:00,
2013-08-05 11:07:00,64.1,49.4,29.84,West,270,1.1,5.1,59,0.00,,,0.05,WUHU216HW,2013-08-05 15:07:00,
2013-08-05 11:13:00,63.9,48.2,29.84,WSW,248,1.8,5.4,57,0.00,,,0.05,WUHU216HW,2013-08-05 15:13:00,
2013-08-05 11:17:00,64.4,48.2,29.84,West,270,2.5,6.5,56,0.00,,,0.05,WUHU216HW,2013-08-05 15:17:00,
2013-08-05 11:23:00,64.1,47.4,29.84,NW,315,4.0,6.5,55,0.00,,,0.05,WUHU216HW,2013-08-05 15:23:00,
2013-08-05 11:28:00,63.4,46.4,29.84,WNW,293,5.4,6.9,54,0.00,,,0.05,WUHU216HW,2013-08-05 15:28:00,
2013-08-05 11:33:00,63.2,47.2,29.84,SSW,203,3.4,6.9,56,0.00,,,0.05,WUHU216HW,2013-08-05 15:33:00,
2013-08-05 11:38:00,64.4,48.2,29.84,NNE,23,2.7,6.7,56,0.00,,,0.05,WUHU216HW,2013-08-05 15:38:00,
2013-08-05 11:43:00,65.0,48.3,29.84,NNW,338,4.3,8.3,55,0.00,,,0.05,WUHU216HW,2013-08-05 15:43:00,
2013-08-05 11:49:00,65.5,48.4,29.84,West,270,1.8,8.3,54,0.00,,,0.05,WUHU216HW,2013-08-05 15:49:00,
2013-08-05 11:53:00,65.3,48.3,29.84,West,270,3.4,6.0,54,0.00,,,0.05,WUHU216HW,2013-08-05 15:53:00,
2013-08-05 11:58:00,65.3,48.3,29.84,SW,225,4.0,6.0,54,0.00,,,0.05,WUHU216HW,2013-08-05 15:58:00,
2013-08-05 12:04:00,66.1,48.4,29.84,WSW,248,2.5,5.6,53,0.00,,,0.05,WUHU216HW,2013-08-05 16:04:00,
2013-08-05 12:09:00,67.0,48.3,29.84,WNW,293,6.9,6.9,51,0.00,,,0.05,WUHU216HW,2013-08-05 16:09:00,
2013-08-05 12:15:00,66.1,47.0,29.84,NW,315,1.1,9.2,50,0.00,,,0.05,WUHU216HW,2013-08-05 16:15:00,
2013-08-05 12:20:00,66.1,48.0,29.83,NW,315,4.0,7.6,52,0.00,,,0.05,WUHU216HW,2013-08-05 16:20:00,
2013-08-05 12:25:00,66.1,48.4,29.83,West,270,1.8,6.9,53,0.00,,,0.05,WUHU216HW,2013-08-05 16:25:00,
2013-08-05 12:30:00,66.1,48.0,29.83,SSE,158,2.0,5.6,52,0.00,,,0.05,WUHU216HW,2013-08-05 16:30:00,
2013-08-05 12:35:00,66.6,48.4,29.83,NW,315,1.6,6.3,52,0.00,,,0.05,WUHU216HW,2013-08-05 16:35:00,
2013-08-05 12:41:00,67.7,48.4,29.83,West,270,5.1,8.1,50,0.00,,,0.05,WUHU216HW,2013-08-05 16:41:00,
2013-08-05 12:47:00,68.8,48.2,29.83,NNW,338,4.0,8.1,48,0.00,,,0.05,WUHU216HW,2013-08-05 16:47:00,
2013-08-05 12:51:00,68.0,48.8,29.83,SSW,203,3.4,6.9,50,0.00,,,0.05,WUHU216HW,2013-08-05 16:51:00,
2013-08-05 12:57:00,67.5,47.1,29.83,SW,225,2.5,7.6,48,0.00,,,0.05,WUHU216HW,2013-08-05 16:57:00,
2013-08-05 13:02:00,68.0,47.6,29.83,SSW,203,5.4,7.6,48,0.00,,,0.05,WUHU216HW,2013-08-05 17:02:00,
2013-08-05 13:07:00,67.7,47.9,29.83,NNE,23,2.9,7.6,49,0.00,,,0.05,WUHU216HW,2013-08-05 17:07:00,
2013-08-05 13:12:00,68.0,47.0,29.82,West,270,3.1,7.6,47,0.00,,,0.05,WUHU216HW,2013-08-05 17:12:00,
2013-08-05 13:17:00,67.5,47.7,29.83,NNW,338,1.1,6.7,49,0.00,,,0.05,WUHU216HW,2013-08-05 17:17:00,
2013-08-05 13:22:00,67.0,47.3,29.83,WNW,293,4.7,6.9,49,0.00,,,0.05,WUHU216HW,2013-08-05 17:22:00,
2013-08-05 13:28:00,67.3,47.0,29.82,North,0,7.6,7.6,48,0.00,,,0.05,WUHU216HW,2013-08-05 17:28:00,
2013-08-05 13:33:00,67.9,48.1,29.82,North,0,2.9,8.9,49,0.00,,,0.05,WUHU216HW,2013-08-05 17:33:00,
2013-08-05 13:37:00,68.9,47.8,29.82,WSW,248,5.8,8.9,47,0.00,,,0.05,WUHU216HW,2013-08-05 17:37:00,
2013-08-05 13:43:00,69.8,48.6,29.82,WNW,293,6.0,8.9,47,0.00,,,0.05,WUHU216HW,2013-08-05 17:43:00,
2013-08-05 13:49:00,69.8,47.4,29.82,West,270,4.0,9.8,45,0.00,,,0.05,WUHU216HW,2013-08-05 17:49:00,
2013-08-05 13:54:00,69.5,48.3,29.82,WNW,293,5.6,9.8,47,0.00,,,0.05,WUHU216HW,2013-08-05 17:54:00,
2013-08-05 13:59:00,69.1,47.3,29.83,NNW,338,2.0,8.9,46,0.00,,,0.05,WUHU216HW,2013-08-05 17:59:00,
2013-08-05 14:04:00,69.5,47.1,29.83,North,0,6.0,8.5,45,0.00,,,0.05,WUHU216HW,2013-08-05 18:04:00,
2013-08-05 14:09:00,68.4,44.9,29.83,NW,315,6.7,8.5,43,0.00,,,0.05,WUHU216HW,2013-08-05 18:09:00,
2013-08-05 14:14:00,68.9,47.8,29.82,WNW,293,3.6,7.6,47,0.00,,,0.05,WUHU216HW,2013-08-05 18:14:00,
2013-08-05 14:19:00,69.5,47.7,29.83,WNW,293,4.3,8.5,46,0.00,,,0.05,WUHU216HW,2013-08-05 18:19:00,
2013-08-05 14:24:00,70.2,47.8,29.82,West,270,4.5,8.5,45,0.00,,,0.05,WUHU216HW,2013-08-05 18:24:00,
2013-08-05 14:29:00,70.2,45.4,29.83,WNW,293,7.6,9.2,41,0.00,,,0.05,WUHU216HW,2013-08-05 18:29:00,
2013-08-05 14:34:00,70.2,47.2,29.83,NW,315,3.4,9.2,44,0.00,,,0.05,WUHU216HW,2013-08-05 18:34:00,
2013-08-05 14:39:00,70.6,46.9,29.83,NW,315,7.6,9.2,43,0.00,,,0.05,WUHU216HW,2013-08-05 18:39:00,
2013-08-05 14:44:00,70.7,46.4,29.82,WSW,248,2.0,10.3,42,0.00,,,0.05,WUHU216HW,2013-08-05 18:44:00,
2013-08-05 14:49:00,70.6,45.1,29.82,West,270,10.1,10.1,40,0.00,,,0.05,WUHU216HW,2013-08-05 18:49:00,
2013-08-05 14:55:00,70.7,46.4,29.82,WNW,293,6.5,10.1,42,0.00,,,0.05,WUHU216HW,2013-08-05 18:55:00,
2013-08-05 15:00:00,69.8,45.6,29.82,SW,225,6.7,10.1,42,0.00,,,0.05,WUHU216HW,2013-08-05 19:00:00,
2013-08-05 15:05:00,70.6,46.3,29.83,NNW,338,3.4,8.3,42,0.00,,,0.05,WUHU216HW,2013-08-05 19:05:00,
2013-08-05 15:10:00,70.6,45.7,29.82,WSW,248,4.7,7.6,41,0.00,,,0.05,WUHU216HW,2013-08-05 19:10:00,
2013-08-05 15:15:00,70.2,46.0,29.83,West,270,5.1,6.7,42,0.00,,,0.05,WUHU216HW,2013-08-05 19:15:00,
2013-08-05 15:20:00,69.3,45.7,29.83,WNW,293,3.4,8.5,43,0.00,,,0.05,WUHU216HW,2013-08-05 19:20:00,
2013-08-05 15:26:00,68.8,45.9,29.83,West,270,5.1,8.5,44,0.00,,,0.05,WUHU216HW,2013-08-05 19:26:00,
2013-08-05 15:31:00,68.2,45.4,29.83,SW,225,8.3,8.3,44,0.00,,,0.05,WUHU216HW,2013-08-05 19:31:00,
2013-08-05 15:36:00,68.4,44.9,29.83,WSW,248,6.3,9.2,43,0.00,,,0.05,WUHU216HW,2013-08-05 19:36:00,
2013-08-05 15:41:00,68.2,45.4,29.83,WSW,248,5.1,10.3,44,0.00,,,0.05,WUHU216HW,2013-08-05 19:41:00,
2013-08-05 15:47:00,68.8,45.3,29.83,NW,315,5.4,10.3,43,0.00,,,0.05,WUHU216HW,2013-08-05 19:47:00,
2013-08-05 15:52:00,68.6,45.1,29.83,WSW,248,4.3,8.5,43,0.00,,,0.05,WUHU216HW,2013-08-05 19:52:00,
2013-08-05 15:57:00,68.0,44.7,29.83,SW,225,4.0,9.8,43,0.00,,,0.05,WUHU216HW,2013-08-05 19:57:00,
2013-08-05 16:03:00,68.2,44.8,29.83,NW,315,6.3,9.2,43,0.00,,,0.05,WUHU216HW,2013-08-05 20:03:00,
2013-08-05 16:08:00,68.4,44.9,29.84,NNW,338,8.9,8.9,43,0.00,,,0.05,WUHU216HW,2013-08-05 20:08:00,
2013-08-05 16:13:00,68.0,41.4,29.84,SW,225,3.8,8.9,38,0.00,,,0.05,WUHU216HW,2013-08-05 20:13:00,
2013-08-05 16:18:00,67.7,41.0,29.84,WSW,248,3.4,9.8,38,0.00,,,0.05,WUHU216HW,2013-08-05 20:18:00,
2013-08-05 16:23:00,67.3,40.0,29.84,SE,135,2.7,9.8,37,0.00,,,0.05,WUHU216HW,2013-08-05 20:23:00,
2013-08-05 16:28:00,67.3,40.0,29.84,NNW,338,6.9,10.7,37,0.00,,,0.05,WUHU216HW,2013-08-05 20:28:00,
2013-08-05 16:33:00,67.3,41.5,29.85,WNW,293,2.9,10.7,39,0.00,,,0.05,WUHU216HW,2013-08-05 20:33:00,
2013-08-05 16:38:00,67.7,41.0,29.85,NW,315,5.1,8.7,38,0.00,,,0.05,WUHU216HW,2013-08-05 20:38:00,
2013-08-05 16:43:00,67.5,41.6,29.85,NW,315,5.4,8.9,39,0.00,,,0.05,WUHU216HW,2013-08-05 20:43:00,
2013-08-05 16:48:00,67.7,41.0,29.85,NNE,23,3.4,9.2,38,0.00,,,0.05,WUHU216HW,2013-08-05 20:48:00,
2013-08-05 16:53:00,67.5,39.4,29.85,NNE,23,4.7,9.2,36,0.00,,,0.05,WUHU216HW,2013-08-05 20:53:00,
2013-08-05 16:59:00,67.3,40.8,29.85,West,270,3.8,12.3,38,0.00,,,0.05,WUHU216HW,2013-08-05 20:59:00,
2013-08-05 17:04:00,67.3,40.8,29.85,West,270,3.4,12.3,38,0.00,,,0.05,WUHU216HW,2013-08-05 21:04:00,
2013-08-05 17:09:00,67.7,41.8,29.85,NW,315,3.4,8.7,39,0.00,,,0.05,WUHU216HW,2013-08-05 21:09:00,
2013-08-05 17:14:00,67.7,41.8,29.85,West,270,2.5,7.4,39,0.00,,,0.05,WUHU216HW,2013-08-05 21:14:00,
2013-08-05 17:19:00,68.6,42.6,29.85,WSW,248,8.5,8.5,39,0.00,,,0.05,WUHU216HW,2013-08-05 21:19:00,
2013-08-05 17:25:00,68.2,40.8,29.85,SSW,203,3.8,10.5,37,0.00,,,0.05,WUHU216HW,2013-08-05 21:25:00,
2013-08-05 17:30:00,67.7,41.0,29.85,NE,45,2.7,10.5,38,0.00,,,0.05,WUHU216HW,2013-08-05 21:30:00,
2013-08-05 17:35:00,67.1,40.6,29.85,NW,315,8.1,8.5,38,0.00,,,0.05,WUHU216HW,2013-08-05 21:35:00,
2013-08-05 17:40:00,67.0,40.4,29.85,NW,315,5.4,13.4,38,0.00,,,0.05,WUHU216HW,2013-08-05 21:40:00,
2013-08-05 17:45:00,66.6,40.9,29.85,NW,315,4.5,13.4,39,0.00,,,0.05,WUHU216HW,2013-08-05 21:45:00,
2013-08-05 17:50:00,67.1,41.3,29.85,NNW,338,4.0,8.3,39,0.00,,,0.05,WUHU216HW,2013-08-05 21:50:00,
2013-08-05 17:55:00,67.0,41.9,29.85,West,270,2.5,10.5,40,0.00,,,0.05,WUHU216HW,2013-08-05 21:55:00,
2013-08-05 18:01:00,67.1,42.7,29.85,WNW,293,1.8,10.5,41,0.00,,,0.05,WUHU216HW,2013-08-05 22:01:00,
2013-08-05 18:06:00,67.3,42.8,29.85,West,270,6.3,7.6,41,0.00,,,0.05,WUHU216HW,2013-08-05 22:06:00,
2013-08-05 18:11:00,67.3,43.4,29.85,West,270,4.7,7.4,42,0.00,,,0.05,WUHU216HW,2013-08-05 22:11:00,
2013-08-05 18:16:00,67.1,43.2,29.85,WSW,248,6.0,7.4,42,0.00,,,0.05,WUHU216HW,2013-08-05 22:16:00,
2013-08-05 18:21:00,67.0,43.7,29.85,WNW,293,4.7,6.9,43,0.00,,,0.05,WUHU216HW,2013-08-05 22:21:00,
2013-08-05 18:27:00,66.6,43.9,29.85,SW,225,2.5,8.1,44,0.00,,,0.05,WUHU216HW,2013-08-05 22:27:00,
2013-08-05 18:32:00,66.4,43.7,29.85,WSW,248,5.1,8.5,44,0.00,,,0.05,WUHU216HW,2013-08-05 22:32:00,
2013-08-05 18:37:00,65.9,43.8,29.85,WSW,248,2.5,8.7,45,0.00,,,0.05,WUHU216HW,2013-08-05 22:37:00,
2013-08-05 18:42:00,65.7,43.7,29.85,WSW,248,3.8,8.7,45,0.00,,,0.05,WUHU216HW,2013-08-05 22:42:00,
2013-08-05 18:48:00,65.7,44.3,29.85,WNW,293,4.7,8.5,46,0.00,,,0.05,WUHU216HW,2013-08-05 22:48:00,
2013-08-05 18:53:00,65.9,44.5,29.85,NW,315,6.3,6.9,46,0.00,,,0.05,WUHU216HW,2013-08-05 22:53:00,
2013-08-05 18:58:00,65.5,44.1,29.86,NNW,338,1.8,6.9,46,0.00,,,0.05,WUHU216HW,2013-08-05 22:58:00,
2013-08-05 19:03:00,65.2,44.4,29.86,NW,315,1.1,6.3,47,0.00,,,0.05,WUHU216HW,2013-08-05 23:03:00,
2013-08-05 19:08:00,65.0,44.7,29.86,West,270,0.9,3.8,48,0.00,,,0.05,WUHU216HW,2013-08-05 23:08:00,
2013-08-05 19:13:00,64.8,45.2,29.86,NNW,338,3.6,3.6,49,0.00,,,0.05,WUHU216HW,2013-08-05 23:13:00,
2013-08-05 19:18:00,64.4,44.8,29.86,NNW,338,4.9,4.9,49,0.00,,,0.05,WUHU216HW,2013-08-05 23:18:00,
2013-08-05 19:23:00,64.3,44.7,29.86,WSW,248,0.4,4.9,49,0.00,,,0.05,WUHU216HW,2013-08-05 23:23:00,
2013-08-05 19:29:00,63.9,44.9,29.86,West,270,1.6,4.9,50,0.00,,,0.05,WUHU216HW,2013-08-05 23:29:00,
2013-08-05 19:34:00,63.5,45.0,29.86,West,270,0.7,2.5,51,0.00,,,0.05,WUHU216HW,2013-08-05 23:34:00,
2013-08-05 19:39:00,63.0,45.0,29.86,NW,315,0.0,1.1,52,0.00,,,0.05,WUHU216HW,2013-08-05 23:39:00,
2013-08-05 19:44:00,62.5,45.0,29.86,WNW,293,0.0,0.7,53,0.00,,,0.05,WUHU216HW,2013-08-05 23:44:00,
2013-08-05 19:49:00,61.7,44.9,29.86,NW,315,0.0,0.0,54,0.00,,,0.05,WUHU216HW,2013-08-05 23:49:00,
2013-08-05 19:54:00,61.2,45.4,29.87,NNE,23,0.0,0.0,56,0.00,,,0.05,WUHU216HW,2013-08-05 23:54:00,
2013-08-05 19:59:00,60.5,45.6,29.87,NNE,23,0.0,0.0,58,0.00,,,0.05,WUHU216HW,2013-08-05 23:59:00,
2013-08-05 20:04:00,59.8,45.5,29.87,North,0,0.0,0.0,59,0.00,,,0.05,WUHU216HW,2013-08-06 00:04:00,
2013-08-05 20:09:00,59.0,45.6,29.87,NNE,23,0.4,1.6,61,0.00,,,0.05,WUHU216HW,2013-08-06 00:09:00,
2013-08-05 20:14:00,58.3,45.4,29.87,NNE,23,0.0,1.6,62,0.00,,,0.05,WUHU216HW,2013-08-06 00:14:00,
2013-08-05 20:19:00,57.4,46.1,29.87,ENE,68,0.9,1.3,66,0.00,,,0.05,WUHU216HW,2013-08-06 00:19:00,
2013-08-05 20:24:00,56.7,45.5,29.87,ENE,68,0.9,1.3,66,0.00,,,0.05,WUHU216HW,2013-08-06 00:24:00,
2013-08-05 20:29:00,56.2,46.2,29.88,ENE,68,1.1,1.3,69,0.00,,,0.05,WUHU216HW,2013-08-06 00:29:00,
2013-08-05 20:34:00,55.8,45.0,29.88,ENE,68,0.0,1.3,67,0.00,,,0.05,WUHU216HW,2013-08-06 00:34:00,
2013-08-05 20:40:00,55.4,45.1,29.88,West,270,0.4,1.1,68,0.00,,,0.05,WUHU216HW,2013-08-06 00:40:00,
2013-08-05 20:45:00,55.1,45.1,29.88,North,0,0.4,0.7,69,0.00,,,0.05,WUHU216HW,2013-08-06 00:45:00,
2013-08-05 20:50:00,54.7,45.6,29.89,North,0,0.7,1.1,71,0.00,,,0.05,WUHU216HW,2013-08-06 00:50:00,
2013-08-05 20:55:00,54.4,45.6,29.88,North,0,1.1,1.1,72,0.00,,,0.05,WUHU216HW,2013-08-06 00:55:00,
2013-08-05 21:00:00,54.2,45.4,29.89,North,0,0.0,1.1,72,0.00,,,0.05,WUHU216HW,2013-08-06 01:00:00,
2013-08-05 21:05:00,53.8,45.4,29.89,SSW,203,0.4,1.1,73,0.00,,,0.05,WUHU216HW,2013-08-06 01:05:00,
2013-08-05 21:10:00,53.6,45.5,29.90,NNE,23,1.3,1.6,74,0.00,,,0.05,WUHU216HW,2013-08-06 01:10:00,
2013-08-05 21:15:00,53.6,45.5,29.90,NNE,23,0.0,1.6,74,0.00,,,0.05,WUHU216HW,2013-08-06 01:15:00,
2013-08-05 21:20:00,52.9,44.6,29.90,North,0,0.0,1.1,73,0.00,,,0.05,WUHU216HW,2013-08-06 01:20:00,
2013-08-05 21:26:00,52.4,44.4,29.90,North,0,0.0,0.7,74,0.00,,,0.05,WUHU216HW,2013-08-06 01:26:00,
2013-08-05 21:31:00,52.0,44.0,29.90,North,0,0.0,0.0,74,0.00,,,0.05,WUHU216HW,2013-08-06 01:31:00,
2013-08-05 21:36:00,51.7,44.0,29.90,North,0,0.0,0.0,75,0.00,,,0.05,WUHU216HW,2013-08-06 01:36:00,
2013-08-05 21:41:00,51.5,44.2,29.90,North,0,0.4,1.1,76,0.00,,,0.05,WUHU216HW,2013-08-06 01:41:00,
2013-08-05 21:46:00,51.1,44.2,29.90,North,0,0.0,1.1,77,0.00,,,0.05,WUHU216HW,2013-08-06 01:46:00,
2013-08-05 21:51:00,50.9,44.3,29.90,WNW,293,0.7,1.1,78,0.00,,,0.05,WUHU216HW,2013-08-06 01:51:00,
2013-08-05 21:57:00,50.8,44.1,29.90,WNW,293,0.4,1.1,78,0.00,,,0.05,WUHU216HW,2013-08-06 01:57:00,
2013-08-05 22:02:00,50.8,44.5,29.91,NW,315,0.7,1.3,79,0.00,,,0.05,WUHU216HW,2013-08-06 02:02:00,
2013-08-05 22:07:00,50.6,44.3,29.91,SSE,158,0.2,1.3,79,0.00,,,0.05,WUHU216HW,2013-08-06 02:07:00,
2013-08-05 22:12:00,50.4,44.1,29.91,North,0,0.4,1.1,79,0.00,,,0.05,WUHU216HW,2013-08-06 02:12:00,
2013-08-05 22:17:00,50.0,44.1,29.91,NNW,338,0.4,1.1,80,0.00,,,0.05,WUHU216HW,2013-08-06 02:17:00,
2013-08-05 22:22:00,50.0,44.4,29.91,North,0,1.1,2.2,81,0.00,,,0.05,WUHU216HW,2013-08-06 02:22:00,
2013-08-05 22:27:00,49.7,43.7,29.91,WNW,293,1.1,2.2,80,0.00,,,0.05,WUHU216HW,2013-08-06 02:27:00,
2013-08-05 22:32:00,49.7,44.0,29.91,North,0,0.4,1.8,81,0.00,,,0.05,WUHU216HW,2013-08-06 02:32:00,
2013-08-05 22:37:00,49.3,44.0,29.91,NNE,23,1.1,1.8,82,0.00,,,0.05,WUHU216HW,2013-08-06 02:37:00,
2013-08-05 22:43:00,49.0,43.7,29.91,North,0,0.0,1.3,82,0.00,,,0.05,WUHU216HW,2013-08-06 02:43:00,
2013-08-05 22:48:00,48.8,43.5,29.91,NNE,23,0.2,1.1,82,0.00,,,0.05,WUHU216HW,2013-08-06 02:48:00,
2013-08-05 22:53:00,48.2,42.7,29.91,NE,45,0.0,1.1,81,0.00,,,0.05,WUHU216HW,2013-08-06 02:53:00,
2013-08-05 22:58:00,48.1,42.8,29.91,NNE,23,1.8,1.8,82,0.00,,,0.05,WUHU216HW,2013-08-06 02:58:00,
2013-08-05 23:03:00,47.9,42.9,29.91,NW,315,0.9,1.8,83,0.00,,,0.05,WUHU216HW,2013-08-06 03:03:00,
2013-08-05 23:08:00,47.9,42.7,29.91,NNW,338,0.7,1.8,82,0.00,,,0.05,WUHU216HW,2013-08-06 03:08:00,
2013-08-05 23:13:00,47.9,42.9,29.91,NW,315,1.1,1.6,83,0.00,,,0.05,WUHU216HW,2013-08-06 03:13:00,
2013-08-05 23:18:00,47.9,42.9,29.92,NNE,23,0.4,1.1,83,0.00,,,0.05,WUHU216HW,2013-08-06 03:18:00,
2013-08-05 23:24:00,47.7,42.8,29.92,North,0,0.9,2.0,83,0.00,,,0.05,WUHU216HW,2013-08-06 03:24:00,
2013-08-05 23:29:00,47.7,43.1,29.92,NW,315,1.1,2.0,84,0.00,,,0.05,WUHU216HW,2013-08-06 03:29:00,
2013-08-05 23:34:00,47.5,43.2,29.92,ENE,68,1.8,2.2,85,0.00,,,0.05,WUHU216HW,2013-08-06 03:34:00,
2013-08-05 23:39:00,47.2,42.9,29.91,North,0,0.4,2.2,85,0.00,,,0.05,WUHU216HW,2013-08-06 03:39:00,
2013-08-05 23:44:00,47.2,42.9,29.91,NW,315,1.1,1.8,85,0.00,,,0.05,WUHU216HW,2013-08-06 03:44:00,
2013-08-05 23:50:00,46.8,42.6,29.91,NW,315,0.7,1.6,85,0.00,,,0.05,WUHU216HW,2013-08-06 03:50:00,
2013-08-05 23:55:00,46.6,42.4,29.91,North,0,0.2,1.6,85,0.00,,,0.05,WUHU216HW,2013-08-06 03:55:00,